Wind_Speed
19 19 19 19 19 19 18 18 18 18 17 18 17 17 17 18 18 18 17 17 17 15 13 12 11 10 9 8 7 7 6 5 4 3 3 3 4 5 6 7 8 10 12 13
18 18 19 19 19 19 18 17 17 17 17 17 18 18 19 20 20 20 20 19 18 17 16 14 13 12 11 10 8 7 7 6 6 6 6 7 7 8 9 10 11 12 14 15
20 18 18 19 19 18 17 17 16 16 16 16 17 18 19 20 20 20 20 20 20 18 18 16 16 14 13 12 10 9 9 8 8 8 8 9 10 11 11 12 13 14 15 16
21 19 19 18 17 16 16 15 15 15 15 15 16 17 17 19 19 20 19 19 19 18 17 17 16 15 14 13 12 11 11 10 10 10 10 10 11 11 12 13 13 14 15 15
22 20 19 17 16 15 15 14 14 14 14 14 15 15 17 18 19 19 19 19 18 18 17 17 17 16 15 14 14 14 13 12 12 11 11 11 11 11 12 12 13 13 14 15
22 21 19 18 16 15 14 14 14 14 14 14 14 15 17 17 18 18 18 18 18 18 18 17 17 17 16 16 15 15 15 14 14 14 13 13 12 12 12 12 13 13 13 13
22 21 19 17 17 15 14 14 13 13 13 13 13 15 15 16 17 17 18 18 18 18 18 18 18 18 17 17 17 17 17 16 16 15 15 14 13 13 13 13 12 12 12 12
20 21 19 17 16 15 14 13 13 12 12 12 12 13 14 15 15 16 17 17 18 18 18 18 18 18 18 19 19 19 18 18 18 17 16 16 15 14 14 14 13 13 12 12
20 20 19 18 16 15 14 13 12 11 11 11 11 12 13 14 14 15 16 16 17 18 18 19 19 19 20 20 20 20 20 20 19 19 18 17 17 16 16 16 15 14 14 13
17 18 18 18 17 15 14 13 12 10 10 10 10 10 11 12 13 14 15 16 17 17 18 19 19 20 19 20 20 20 21 21 21 20 19 19 18 17 17 17 16 16 15 15
15 16 17 17 17 16 15 13 12 10 9 9 9 9 9 11 11 12 13 14 15 16 17 18 18 19 20 20 20 20 20 20 21 21 20 19 19 19 18 18 18 17 17 16
13 14 15 15 15 16 15 14 12 11 9 8 8 8 8 9 10 11 11 12 13 15 15 16 17 18 19 20 20 20 20 21 21 21 20 20 20 19 19 19 19 18 18 18
12 12 13 13 14 15 15 14 13 12 10 8 7 7 7 7 8 9 10 10 12 13 14 14 15 17 18 18 19 20 20 20 21 21 21 20 20 20 19 19 19 19 19 19
11 11 11 11 12 13 14 13 13 12 11 10 7 6 6 6 6 7 7 8 10 11 12 13 13 15 16 17 18 19 19 19 20 20 20 20 20 20 20 20 20 19 19 19
12 12 11 11 10 11 12 12 12 12 11 10 9 7 6 6 6 6 6 6 8 9 10 11 12 13 14 15 16 17 18 18 18 19 19 20 20 20 20 19 19 19 19 19
13 13 12 11 11 10 10 11 11 10 10 10 9 8 7 6 6 6 6 6 6 7 8 10 11 12 13 14 15 16 17 17 17 18 18 18 19 19 19 19 19 18 19 19
15 14 13 13 12 11 10 10 10 10 10 9 9 8 7 7 7 6 6 6 6 6 7 8 9 10 11 12 13 14 15 16 16 17 17 17 18 18 18 18 18 18 17 18
16 16 15 15 13 12 11 11 10 10 10 9 9 9 8 8 8 7 7 7 7 6 7 7 8 9 9 10 11 12 13 14 14 15 16 16 17 17 18 17 17 17 17 16
19 18 17 17 16 15 14 13 12 11 11 10 10 9 9 8 8 8 7 8 8 7 7 7 7 8 8 9 9 10 11 12 13 13 14 15 15 16 16 16 16 16 16 16
22 21 20 19 18 17 16 16 15 14 13 12 11 10 10 9 9 8 8 8 8 8 8 8 8 8 8 8 8 8 9 10 11 12 13 13 14 14 14 14 15 14 14 14
26 25 24 22 21 20 19 18 17 16 15 14 13 12 11 10 10 9 9 9 9 9 9 9 9 9 9 8 8 8 8 8 9 10 11 11 12 13 13 13 13 13 13 13
30 29 27 26 25 23 22 21 20 20 19 18 16 15 14 13 12 11 10 10 10 10 10 10 10 10 10 9 9 8 8 8 8 8 9 9 10 11 12 12 12 12 12 11
35 33 32 30 29 27 26 25 24 23 22 21 20 19 18 16 15 14 13 12 11 11 11 11 11 12 11 11 10 10 9 9 9 8 8 8 8 9 10 10 10 10 10 10
40 38 36 35 33 32 30 29 28 26 25 25 24 23 22 20 19 18 16 15 14 13 12 12 12 12 13 13 12 12 11 10 10 10 9 9 8 8 8 9 9 9 9 9
45 43 41 39 38 36 35 34 32 30 29 29 28 27 26 25 23 22 20 19 18 16 15 14 14 13 13 14 14 14 13 12 12 11 11 10 10 9 8 8 8 8 8 8
49 47 46 44 43 41 39 38 36 35 34 33 32 31 30 29 28 26 25 23 22 21 19 18 16 15 15 14 14 15 15 15 14 13 13 12 12 11 11 10 9 9 9 8
52 51 50 48 47 45 43 42 40 39 38 37 36 35 34 33 32 31 30 28 27 26 24 23 21 19 18 17 16 16 16 16 16 16 15 14 14 13 13 12 12 11 10 10
Wind_Direction
19 20 22 25 28 31 34 36 40 44 44 42 44 44 46 48 48 46 50 51 49 51 51 49 46 48 49 50 47 40 33 28 20 6 354 321 303 291 281 275 273 271 271 269
23 24 24 26 30 31 33 35 41 46 48 47 48 49 50 51 51 50 51 50 49 49 48 46 46 47 46 43 40 33 23 14 3 347 331 318 307 299 293 287 281 277 275 273
25 25 24 28 29 30 32 36 41 45 47 47 47 46 48 48 47 47 45 45 44 43 41 39 38 38 36 33 28 21 11 1 349 337 326 318 309 302 298 294 290 284 280 278
24 24 26 24 26 28 30 35 39 40 43 43 43 44 47 47 45 43 41 39 38 37 35 34 33 32 30 28 23 15 7 360 351 342 333 325 317 309 303 299 295 290 286 283
22 24 26 24 23 24 26 30 34 35 37 39 41 42 44 44 41 40 37 35 34 33 31 30 29 27 26 23 21 17 12 6 359 353 346 339 331 323 316 309 304 299 294 289
22 22 23 23 22 21 22 27 29 31 33 36 39 39 41 40 38 36 34 33 33 31 30 29 29 28 27 25 22 19 16 12 7 2 356 351 345 340 334 327 321 315 309 302
21 22 23 22 21 19 21 24 27 29 31 35 37 38 39 37 36 34 34 34 32 31 31 31 31 31 30 30 27 24 21 18 16 12 8 3 358 353 349 345 339 333 326 319
19 19 20 19 21 21 20 20 23 27 30 33 36 38 38 37 36 36 35 34 34 34 34 34 35 36 35 33 31 29 27 25 22 20 17 14 11 8 3 359 354 349 343 336
18 19 19 19 20 21 21 20 20 23 28 31 34 35 37 37 37 37 36 37 37 37 37 38 38 37 36 34 33 31 29 27 25 22 21 19 18 16 13 10 6 2 358 354
16 18 19 20 22 22 22 23 23 24 26 28 31 33 35 36 37 38 38 39 39 38 39 39 38 37 35 34 32 30 28 26 25 24 24 23 22 20 18 17 16 15 13 11
9 14 17 19 21 22 22 22 22 24 26 27 29 30 32 34 35 37 38 39 38 38 38 38 37 35 34 33 31 29 28 26 26 26 26 26 26 25 24 24 24 24 24 23
358 4 11 15 19 20 22 23 22 21 22 24 26 28 29 30 33 34 35 37 36 36 36 35 35 33 32 31 30 29 29 28 28 27 27 27 27 28 28 29 29 30 30 30
347 353 359 7 14 16 18 21 22 22 22 20 20 22 24 25 27 29 31 32 33 32 31 31 31 30 29 29 28 28 28 28 28 28 29 29 29 29 30 31 32 33 34 35
334 340 346 351 359 7 11 14 17 20 21 21 18 14 12 14 16 19 22 26 27 27 25 25 24 24 25 25 25 24 24 25 27 28 29 30 31 32 32 33 34 35 37 38
320 325 330 335 343 353 1 5 8 10 13 15 14 9 5 4 4 5 7 11 15 17 17 18 17 17 18 20 21 22 22 23 25 26 27 28 30 31 33 34 35 37 39 41
310 312 316 319 322 332 343 353 359 360 1 5 6 2 357 353 352 351 351 351 356 2 5 8 10 12 14 16 17 19 20 21 23 25 26 27 28 29 31 32 34 37 39 41
302 304 305 307 308 311 320 330 340 349 351 351 355 355 351 346 339 334 337 339 339 343 350 355 1 5 8 11 14 16 18 20 22 23 25 26 27 27 29 31 33 34 36 38
294 296 297 299 300 299 302 308 316 326 336 339 339 341 342 339 336 329 323 326 327 327 333 340 348 354 359 3 7 11 14 16 18 20 21 23 24 26 27 29 31 32 34 36
288 290 291 292 293 292 291 292 296 303 311 320 326 326 327 329 330 326 320 318 320 317 316 322 331 340 347 351 356 2 6 10 12 14 16 17 19 21 24 26 27 29 31 34
282 283 284 285 286 287 285 284 284 286 292 299 307 313 315 316 318 320 317 313 313 313 310 308 311 320 331 337 343 349 355 1 5 8 11 13 15 17 19 22 24 27 29 31
277 278 278 279 279 281 281 280 278 278 279 283 288 294 300 305 309 310 311 310 308 307 308 307 303 302 308 317 324 330 338 346 354 360 4 8 11 13 15 17 20 22 25 27
271 273 274 274 274 275 275 276 274 273 273 274 276 280 284 288 293 297 301 303 304 304 303 302 299 298 297 300 304 310 316 323 332 342 350 356 1 6 9 11 14 17 19 21
267 268 269 270 270 270 270 270 270 270 269 268 269 271 274 276 279 283 286 289 293 296 299 300 297 294 292 291 292 294 298 303 309 317 328 336 343 350 357 2 5 7 10 13
263 264 265 266 266 267 266 266 266 266 266 266 265 266 268 270 271 273 275 278 281 285 289 294 296 294 290 287 286 286 287 290 294 297 303 312 320 327 335 343 350 354 356 359
260 261 262 263 263 264 263 263 263 263 263 263 263 263 263 265 266 267 268 269 272 274 278 282 287 290 290 286 282 281 281 282 284 286 289 291 296 303 310 319 327 333 339 343
257 259 260 260 260 261 261 261 261 261 261 261 262 261 261 262 262 263 264 265 266 267 269 271 275 280 282 284 283 280 278 277 279 280 282 283 284 287 291 296 303 311 317 321
256 257 257 258 258 258 259 259 259 259 259 260 260 261 261 260 260 261 262 262 263 263 263 264 266 270 273 275 277 278 278 276 275 275 276 278 279 280 281 283 286 291 295 300
Height
5847 5842 5838 5834 5830 5827 5823 5820 5817 5815 5812 5810 5807 5804 5801 5799 5797 5794 5792 5790 5789 5787 5786 5786 5785 5784 5783 5782 5782 5782 5782 5781 5781 5781 5781 5781 5781 5781 5781 5781 5782 5782 5783 5784
5849 5845 5841 5837 5834 5830 5827 5824 5821 5818 5816 5814 5811 5809 5806 5803 5801 5799 5797 5795 5793 5791 5790 5789 5788 5787 5786 5785 5784 5784 5783 5782 5782 5781 5781 5780 5780 5780 5779 5779 5779 5779 5779 5779
5851 5847 5844 5840 5837 5834 5830 5827 5825 5823 5821 5818 5815 5813 5810 5808 5805 5803 5801 5799 5797 5795 5794 5792 5790 5789 5788 5787 5786 5785 5784 5783 5782 5781 5780 5779 5778 5777 5776 5776 5775 5775 5775 5774
5853 5850 5846 5845 5839 5837 5834 5831 5828 5826 5824 5822 5819 5817 5814 5812 5809 5807 5805 5803 5801 5798 5797 5795 5793 5791 5790 5788 5787 5785 5784 5782 5781 5780 5778 5777 5776 5775 5773 5772 5772 5771 5770 5769
5855 5851 5848 5846 5842 5839 5837 5834 5832 5829 5827 5825 5823 5821 5818 5816 5813 5811 5809 5806 5804 5802 5800 5797 5796 5794 5792 5790 5788 5786 5784 5782 5780 5779 5777 5775 5774 5772 5770 5769 5768 5766 5765 5764
5857 5853 5850 5849 5845 5842 5841 5837 5835 5832 5830 5828 5826 5824 5822 5819 5817 5814 5812 5809 5807 5805 5803 5800 5798 5796 5793 5791 5789 5787 5785 5782 5780 5778 5776 5773 5771 5770 5768 5766 5764 5762 5761 5759
5859 5856 5853 5850 5846 5844 5843 5841 5837 5835 5833 5831 5829 5827 5825 5822 5820 5818 5815 5813 5810 5808 5805 5803 5800 5798 5796 5793 5791 5788 5786 5783 5781 5778 5775 5773 5770 5768 5766 5764 5761 5759 5758 5756
5862 5858 5857 5852 5849 5847 5845 5841 5839 5837 5835 5833 5832 5830 5828 5826 5824 5821 5819 5816 5814 5811 5808 5806 5803 5801 5798 5796 5793 5790 5787 5785 5782 5779 5776 5773 5770 5768 5765 5763 5760 5758 5756 5753
5864 5862 5858 5854 5851 5848 5845 5843 5841 5839 5838 5836 5834 5833 5831 5829 5827 5824 5822 5820 5817 5815 5812 5809 5806 5804 5801 5799 5796 5793 5790 5787 5784 5781 5778 5774 5772 5769 5766 5763 5760 5757 5754 5752
5865 5862 5859 5856 5853 5850 5847 5845 5843 5841 5839 5838 5836 5835 5833 5831 5829 5827 5825 5823 5821 5818 5815 5813 5810 5807 5805 5802 5799 5796 5793 5790 5786 5783 5780 5776 5773 5770 5767 5764 5761 5758 5755 5752
5867 5864 5861 5858 5855 5852 5849 5846 5844 5842 5841 5840 5838 5837 5835 5834 5832 5830 5828 5826 5824 5821 5819 5816 5814 5811 5808 5805 5802 5799 5796 5793 5789 5786 5782 5779 5776 5772 5769 5766 5762 5759 5756 5753
5868 5865 5863 5860 5857 5854 5851 5848 5846 5844 5842 5841 5840 5838 5837 5836 5834 5832 5830 5829 5827 5824 5822 5819 5817 5814 5811 5808 5806 5802 5799 5796 5792 5789 5785 5782 5779 5775 5772 5768 5765 5762 5759 5756
5867 5865 5863 5860 5858 5855 5853 5850 5848 5845 5844 5842 5841 5840 5838 5837 5835 5834 5832 5831 5829 5827 5825 5822 5820 5817 5815 5812 5809 5806 5803 5799 5796 5792 5789 5785 5782 5779 5775 5772 5769 5765 5762 5759
5866 5864 5863 5861 5859 5856 5854 5852 5849 5847 5845 5843 5841 5840 5839 5838 5836 5835 5834 5832 5830 5828 5826 5824 5822 5820 5817 5814 5812 5809 5806 5802 5799 5796 5793 5789 5786 5782 5779 5776 5773 5769 5766 5763
5864 5863 5862 5860 5858 5856 5854 5852 5850 5848 5846 5844 5842 5841 5839 5838 5837 5836 5834 5833 5831 5830 5828 5826 5824 5822 5819 5817 5814 5811 5808 5805 5802 5799 5796 5793 5789 5786 5783 5780 5777 5774 5771 5768
5862 5861 5860 5858 5857 5856 5854 5852 5850 5849 5847 5845 5843 5841 5840 5838 5837 5836 5834 5833 5832 5830 5829 5827 5825 5823 5821 5818 5816 5813 5811 5808 5805 5802 5799 5796 5793 5790 5787 5784 5781 5778 5775 5772
5859 5858 5857 5856 5855 5854 5853 5851 5850 5848 5846 5845 5843 5841 5840 5838 5837 5835 5834 5833 5831 5830 5829 5827 5825 5823 5822 5820 5817 5815 5813 5810 5808 5805 5802 5799 5796 5793 5790 5787 5784 5782 5779 5776
5855 5855 5854 5853 5852 5851 5850 5849 5848 5847 5846 5844 5842 5841 5839 5837 5836 5835 5833 5832 5831 5829 5828 5827 5825 5824 5822 5820 5818 5816 5814 5812 5810 5807 5805 5802 5799 5796 5794 5791 5788 5785 5783 5780
5851 5850 5850 5849 5848 5848 5847 5846 5845 5845 5844 5842 5841 5839 5838 5836 5835 5833 5832 5831 5830 5828 5827 5826 5825 5823 5822 5820 5818 5817 5815 5813 5811 5809 5807 5804 5802 5799 5796 5794 5791 5789 5786 5784
5845 5845 5845 5844 5844 5843 5843 5842 5842 5841 5840 5840 5839 5837 5836 5835 5833 5832 5831 5829 5828 5827 5826 5825 5823 5822 5821 5819 5818 5816 5815 5813 5812 5810 5808 5806 5804 5801 5799 5797 5794 5792 5789 5787
5838 5838 5838 5838 5838 5838 5838 5837 5837 5837 5836 5836 5835 5835 5834 5833 5831 5830 5829 5827 5826 5825 5824 5823 5822 5821 5819 5818 5817 5816 5814 5813 5812 5810 5808 5807 5805 5803 5801 5799 5796 5794 5792 5790
5830 5830 5831 5831 5832 5832 5832 5831 5831 5831 5831 5831 5831 5830 5830 5829 5828 5827 5826 5825 5824 5823 5821 5820 5819 5818 5817 5816 5815 5814 5813 5812 5811 5810 5808 5807 5805 5804 5802 5800 5798 5796 5794 5792
5820 5821 5822 5823 5824 5824 5825 5825 5825 5825 5825 5825 5825 5825 5825 5824 5824 5824 5823 5822 5821 5820 5819 5818 5816 5815 5815 5814 5813 5812 5811 5810 5809 5809 5807 5806 5805 5804 5802 5801 5799 5797 5795 5794
5809 5810 5812 5813 5814 5815 5816 5816 5817 5817 5818 5818 5818 5818 5818 5818 5818 5818 5818 5817 5817 5816 5815 5814 5813 5812 5811 5811 5810 5809 5808 5808 5807 5806 5806 5805 5804 5803 5802 5800 5799 5798 5796 5794
5796 5798 5799 5801 5803 5804 5805 5807 5808 5809 5809 5809 5810 5810 5811 5811 5812 5812 5812 5812 5812 5811 5811 5810 5809 5808 5807 5807 5806 5806 5805 5804 5804 5803 5803 5802 5801 5801 5800 5799 5798 5797 5795 5794
5781 5784 5786 5788 5790 5792 5794 5795 5797 5798 5799 5800 5801 5802 5802 5803 5804 5804 5804 5805 5805 5805 5805 5805 5804 5804 5803 5802 5802 5801 5801 5800 5800 5800 5799 5799 5798 5798 5797 5797 5796 5795 5794 5793
5766 5768 5771 5773 5776 5778 5780 5782 5784 5786 5788 5789 5790 5791 5792 5793 5794 5795 5795 5796 5797 5797 5798 5798 5798 5798 5798 5797 5797 5796 5796 5795 5795 5795 5795 5794 5794 5794 5793 5793 5792 5792 5791 5791